Location: ??
(35.4627°N, 139.3695°E)
Time: 15:03:50
(UTC+00:00)

Cosmos 389 Rocket - Pass Details

Date: 25 November 2020
Orbit: 442 x 473 km, 81.1° (Epoch: 20 January)

Event Time Altitude Azimuth Distance (km) Brightness Sun altitude
Exits shadow 19:51:26 18° 204° (SSW) 1,163 4.3 -19.5°
Drops below altitude 10° 19:52:34 10° 195° (SSW) 1,588 5.1 -19.3°
Sets 19:54:43 0° 187° (S) 2,463 6.2 -18.9°
